Location: Cella
(44.7333°N, 10.5667°E)
Time: 18:31:52
(UTC+00:00)

COSMOS 1867 COOLANT - Pass Details

Date: 19 September 2021
Orbit: 770 x 802 km, 65.0° (Epoch: 20 October)

Event Time Altitude Azimuth Distance (km) Brightness Sun altitude
Rises 21:05:41 0° 329° (NNW) 3,320 ? -36.3°
Reaches altitude 10° 21:08:20 10° 338° (NNW) 2,387 ? -36.6°
Enters shadow 21:10:53 24° 357° (N) 1,613 ? -36.9°
